TimeEDT,TemperatureF,Dew PointF,Humidity,Sea Level PressureIn,VisibilityMPH,Wind Direction,Wind SpeedMPH,Gust SpeedMPH,PrecipitationIn,Events,Conditions,WindDirDegrees,DateUTC
12:53 AM,68.0,64.9,90,29.99,7.0,Calm,Calm,-,0.00,Rain,Light Rain,0,2012-09-29 04:53:00
1:53 AM,68.0,64.9,90,29.98,7.0,Calm,Calm,-,0.00,Rain,Light Rain,0,2012-09-29 05:53:00
2:43 AM,66.2,64.4,94,30.00,3.0,South,3.5,-,0.01,,Overcast,190,2012-09-29 06:43:00
2:53 AM,66.9,64.9,93,29.97,3.0,Calm,Calm,-,0.01,,Overcast,0,2012-09-29 06:53:00
3:53 AM,66.9,64.9,93,29.96,2.5,Calm,Calm,-,0.00,,Overcast,0,2012-09-29 07:53:00
4:05 AM,66.2,64.4,94,29.98,3.0,Calm,Calm,-,N/A,,Overcast,0,2012-09-29 08:05:00
4:53 AM,66.9,64.0,90,29.96,8.0,Calm,Calm,-,0.01,,Overcast,0,2012-09-29 08:53:00
5:30 AM,66.2,64.4,94,30.00,5.0,SSW,3.5,-,0.01,Rain,Light Rain,200,2012-09-29 09:30:00
5:39 AM,66.2,64.4,94,30.00,7.0,Calm,Calm,-,0.01,,Overcast,0,2012-09-29 09:39:00
5:53 AM,66.9,64.0,90,29.97,5.0,Calm,Calm,-,0.02,,Overcast,0,2012-09-29 09:53:00
6:02 AM,66.2,64.4,94,30.00,2.5,WNW,3.5,-,0.03,Rain,Light Rain,300,2012-09-29 10:02:00
6:09 AM,66.2,64.4,94,30.00,7.0,Calm,Calm,-,0.03,Rain,Light Rain,0,2012-09-29 10:09:00
6:24 AM,66.2,64.4,94,30.00,4.0,Calm,Calm,-,0.03,,Overcast,0,2012-09-29 10:24:00
6:53 AM,66.9,64.0,90,29.97,5.0,Calm,Calm,-,0.04,,Overcast,0,2012-09-29 10:53:00
7:10 AM,66.2,64.4,94,30.00,2.0,Calm,Calm,-,N/A,,Overcast,0,2012-09-29 11:10:00
7:21 AM,66.2,64.4,94,30.00,4.0,Calm,Calm,-,N/A,,Overcast,0,2012-09-29 11:21:00
7:41 AM,64.4,62.6,94,30.01,5.0,ENE,9.2,-,N/A,,Overcast,70,2012-09-29 11:41:00
7:49 AM,62.6,60.8,94,30.02,8.0,NE,9.2,-,N/A,,Overcast,50,2012-09-29 11:49:00
7:53 AM,63.0,59.0,87,29.99,9.0,ENE,8.1,-,N/A,,Overcast,60,2012-09-29 11:53:00
8:02 AM,62.6,59.0,88,30.02,10.0,ENE,11.5,-,N/A,,Overcast,60,2012-09-29 12:02:00
8:53 AM,60.1,55.9,86,30.01,10.0,ENE,9.2,-,N/A,,Overcast,70,2012-09-29 12:53:00
9:21 AM,60.8,57.2,88,30.03,8.0,East,5.8,-,N/A,,Overcast,80,2012-09-29 13:21:00
9:36 AM,60.8,57.2,88,30.04,7.0,East,6.9,-,N/A,,Overcast,80,2012-09-29 13:36:00
9:51 AM,60.8,57.2,88,30.03,8.0,East,5.8,-,N/A,,Overcast,80,2012-09-29 13:51:00
9:53 AM,61.0,57.0,87,30.01,8.0,East,8.1,-,N/A,,Overcast,80,2012-09-29 13:53:00
10:53 AM,60.1,55.9,86,30.02,10.0,ENE,6.9,-,N/A,,Overcast,60,2012-09-29 14:53:00
11:53 AM,61.0,57.0,87,30.00,10.0,East,4.6,-,N/A,,Overcast,80,2012-09-29 15:53:00
12:53 PM,61.0,57.0,87,29.98,10.0,Variable,3.5,-,N/A,,Overcast,0,2012-09-29 16:53:00
1:53 PM,62.1,57.0,84,29.96,10.0,East,4.6,-,N/A,,Overcast,100,2012-09-29 17:53:00
2:53 PM,63.0,57.0,81,29.94,10.0,ESE,3.5,-,N/A,,Overcast,120,2012-09-29 18:53:00
3:38 PM,62.6,57.2,82,29.95,10.0,Variable,3.5,-,N/A,,Overcast,0,2012-09-29 19:38:00
3:53 PM,62.1,57.0,84,29.92,10.0,East,3.5,-,0.00,Rain,Light Rain,80,2012-09-29 19:53:00
4:37 PM,60.8,57.2,88,29.95,2.5,Calm,Calm,-,0.06,Rain,Rain,0,2012-09-29 20:37:00
4:48 PM,60.8,57.2,88,29.94,2.0,SSE,3.5,-,0.09,Rain,Rain,150,2012-09-29 20:48:00
4:53 PM,60.1,57.9,93,29.91,2.5,SE,3.5,-,0.11,Rain,Rain,140,2012-09-29 20:53:00
5:00 PM,60.8,57.2,88,29.93,2.5,Calm,Calm,-,0.02,Rain,Rain,0,2012-09-29 21:00:00
5:11 PM,60.8,57.2,88,29.93,4.0,Calm,Calm,-,0.03,Rain,Light Rain,0,2012-09-29 21:11:00
5:31 PM,60.8,57.2,88,29.93,5.0,Calm,Calm,-,0.04,Rain,Light Rain,0,2012-09-29 21:31:00
5:53 PM,61.0,57.9,90,29.91,6.0,Calm,Calm,-,0.04,,Overcast,0,2012-09-29 21:53:00
6:29 PM,60.8,57.2,88,29.94,6.0,Calm,Calm,-,0.01,,Overcast,0,2012-09-29 22:29:00
6:53 PM,61.0,57.9,90,29.90,6.0,East,4.6,-,0.01,,Overcast,90,2012-09-29 22:53:00
7:53 PM,60.1,57.9,93,29.91,6.0,Calm,Calm,-,N/A,,Overcast,0,2012-09-29 23:53:00
8:53 PM,59.0,55.9,90,29.93,10.0,NE,4.6,-,N/A,,Overcast,40,2012-09-30 00:53:00
9:53 PM,57.9,55.0,90,29.93,8.0,Calm,Calm,-,N/A,,Overcast,0,2012-09-30 01:53:00
10:40 PM,57.2,55.4,94,29.96,10.0,NE,3.5,-,N/A,,Overcast,40,2012-09-30 02:40:00
10:53 PM,57.9,55.0,90,29.94,10.0,ENE,3.5,-,N/A,,Overcast,70,2012-09-30 02:53:00
11:53 PM,57.9,55.0,90,29.94,10.0,NE,3.5,-,N/A,,Overcast,50,2012-09-30 03:53:00